sat.trackr.live / text

‹ back to catalog

STARLINK-5328

NORAD 55657 · 2023-021AF

PAYLOAD ACTIVE UNKNOWN

§ Identity

Operator
Country
US
Launch date
2023-02-17
Launch site
AFWTR
Launch vehicle
Mass (kg)
RCS (m²)

Purposes: comms

External: N2YO · Heavens-Above · Gunter

§ Orbital elements

Epoch: 2026-09-20T15:35:16.229760Z

Period
96.11 min
Inclination
70.0004°
Eccentricity
0.0003159
Mean motion
14.98329206 rev/d
Perigee alt
569.9 km
Apogee alt
574.3 km
Semi-major
6,950.2 km
B*
5.6676e-5
RAAN
33.0537°
Arg perigee
269.0537°
Mean anomaly
91.0260°
Rev number
19,848

§ Raw data

STARLINK-53281 55657U 23021AF  26263.64949340  .00000583  00000+0  56676-4 0  99932 55657  70.0004  33.0537 0003159 269.0537  91.0260 14.98329206198484

JSON: /api/v1/satellites/55657 · /tle

For live sub-satellite position, see the globe view (requires WebGL).

§ Visibility from observer

Set your observer location to see the next 7 days of passes ≥ 10°. The values pass through the URL so the page stays shareable.

No JS? Fill the form by hand. The geolocation button needs JavaScript.